RH
69 72 68 60 99 97 72 64 74 84 91 86 99 100 99 94 100 96 100 81 24 27 28 27 25 24 23 25 24 25 25 25 26 26 27 28 28 28 30 33 34 35 38
90 98 100 99 100 97 81 76 71 87 84 86 98 100 98 100 99 100 100 74 26 27 30 30 29 30 29 29 27 28 28 29 29 29 29 29 30 31 33 35 37 40 44
97 93 99 86 75 56 70 52 74 93 97 92 96 100 96 100 99 100 100 42 33 32 36 36 37 38 37 33 36 33 32 34 33 32 32 33 34 35 37 40 44 48 52
93 100 96 98 83 83 49 63 98 87 94 89 92 90 95 97 100 100 100 66 35 39 39 39 40 39 37 38 38 34 34 36 37 37 39 39 40 42 47 53 80 91 93
100 100 99 95 91 81 66 65 77 75 74 79 87 88 99 99 100 100 99 96 38 43 41 44 43 38 37 37 35 40 39 44 47 52 65 63 58 58 63 97 98 98 98
99 98 99 86 90 91 70 86 81 80 88 92 93 98 100 100 99 99 99 99 62 43 46 68 63 60 64 61 70 65 69 68 95 97 94 91 85 74 98 99 98 98 98
92 98 96 87 78 82 91 100 93 87 95 89 100 100 99 98 98 100 99 99 98 97 96 91 93 99 96 100 100 99 100 96 98 99 99 100 99 99 99 99 98 98 98
98 99 72 81 94 95 99 98 98 96 100 99 99 96 99 99 99 99 99 99 99 99 98 99 99 99 99 99 99 99 100 97 97 99 99 98 99 98 99 98 98 98 99
99 100 99 98 99 97 96 94 87 98 91 100 99 100 99 96 90 82 85 95 99 97 97 98 99 99 99 99 99 96 99 99 98 99 97 99 92 97 98 96 98 98 99
99 100 100 100 100 100 97 99 99 99 99 99 100 100 100 100 100 98 84 58 78 98 95 96 86 82 89 91 84 63 69 95 99 96 92 100 95 100 98 99 98 98 98
97 97 98 99 98 100 99 100 100 98 93 96 88 99 66 48 40 42 39 35 33 34 36 36 38 42 48 54 56 66 78 83 84 80 98 96 96 100 96 98 99 98 98
96 96 95 87 78 71 67 68 74 76 57 52 45 42 42 42 39 38 38 39 37 37 42 45 47 38 36 40 49 46 69 87 84 82 94 100 99 100 100 99 100 99 98
96 96 96 96 95 86 71 58 51 47 45 43 42 52 64 58 49 33 31 27 20 18 18 20 22 22 26 35 65 90 94 99 99 97 100 99 99 97 97 97 99 98 95
96 96 96 96 96 95 95 94 84 67 55 53 65 79 83 81 65 35 23 19 18 19 20 17 19 25 30 43 62 70 99 100 99 100 99 98 97 99 98 98 97 95 93
95 96 96 96 94 95 95 95 96 96 95 94 89 81 86 85 94 75 47 34 30 21 22 24 24 23 27 34 48 85 81 99 100 100 99 99 99 100 97 97 96 94 92
95 94 92 91 91 94 92 90 88 89 95 96 95 96 97 94 81 76 82 52 49 40 29 30 32 30 27 31 34 69 98 100 100 100 100 100 99 100 99 99 98 96 94
69 73 86 76 76 78 83 82 88 90 87 89 93 96 96 96 95 84 46 40 36 34 34 34 34 33 37 53 54 73 99 100 100 100 100 98 97 97 96 96 98 95 90
46 66 59 61 60 47 58 68 72 69 72 76 85 91 91 91 72 58 58 48 36 36 34 33 33 36 43 41 43 54 91 98 100 100 100 99 97 98 100 100 98 92 87
20 15 21 32 46 38 35 35 36 40 48 51 56 59 56 71 90 85 73 60 49 44 40 38 35 31 30 34 41 59 80 83 98 99 99 96 97 96 96 97 96 93 93
30 23 20 22 19 19 21 27 29 31 32 32 33 36 44 50 50 47 64 75 63 56 55 52 47 44 39 31 29 43 74 77 88 94 96 97 97 98 95 94 94 95 91
47 45 41 35 32 27 22 19 19 20 21 20 22 25 29 31 35 43 53 44 39 38 38 36 37 39 41 40 36 35 57 75 90 98 99 100 98 96 96 96 95 92 87
55 53 53 51 50 49 44 35 31 27 23 19 18 17 16 15 16 19 22 26 39 39 36 34 34 36 41 47 53 59 78 96 100 100 99 98 97 97 96 95 93 92 91
65 63 63 61 56 56 54 50 46 42 37 31 28 25 22 19 16 15 14 14 14 17 24 26 33 43 48 74 100 100 98 100 100 100 99 97 98 97 96 96 94 92 90
73 71 68 67 66 65 63 60 55 50 46 43 40 35 29 26 24 21 21 20 19 20 16 22 25 38 72 86 98 100 100 98 98 98 100 98 97 96 96 95 96 92 88
75 75 74 71 73 73 72 69 66 64 61 58 55 50 51 49 50 48 46 58 64 57 47 69 82 94 89 97 100 99 99 98 97 96 98 100 96 96 95 94 94 96 98
78 79 79 78 77 75 73 73 74 73 73 76 73 71 72 77 88 92 100 100 100 100 100 100 100 100 100 100 99 96 99 97 98 96 97 98 99 96 97 95 99 100 100
Wind_Speed
28 28 27 30 26 29 29 27 31 31 33 31 32 34 35 34 38 48 42 40 39 37 36 35 34 33 35 33 33 31 31 31 30 29 29 29 29 29 30 31 33 33 35
32 26 25 25 27 23 26 30 33 33 34 34 27 35 33 35 43 44 55 47 41 39 36 36 35 34 34 35 35 29 31 31 32 31 31 32 32 31 33 34 34 34 36
33 34 32 30 30 31 28 23 24 31 30 33 30 35 33 36 38 36 45 42 39 38 37 36 34 35 35 35 31 31 31 33 34 34 34 34 33 32 34 35 36 37 38
36 35 24 27 30 27 22 25 25 19 25 33 38 36 34 37 45 48 46 46 39 38 37 36 36 35 34 32 32 32 33 35 35 36 36 36 35 34 35 35 38 45 48
21 31 43 24 23 25 17 18 18 17 22 23 23 27 32 32 37 43 42 52 42 40 38 38 36 35 33 34 36 34 35 37 37 38 40 41 40 38 35 37 38 35 36
27 26 20 29 21 19 18 13 13 11 11 16 15 16 20 27 22 28 41 47 48 43 40 35 36 35 34 35 34 34 39 41 40 42 43 45 44 40 39 34 32 31 29
29 31 24 23 27 29 21 22 17 15 10 11 10 13 16 14 14 13 16 35 47 39 44 39 37 35 36 36 39 44 42 41 39 37 37 33 38 37 33 32 32 31 24
26 21 19 25 29 26 32 22 21 18 16 15 13 12 10 19 18 22 21 20 21 30 41 32 32 37 46 35 35 35 42 37 32 28 25 24 24 32 29 29 33 27 31
30 29 30 24 21 22 24 25 20 19 19 18 17 19 17 11 9 12 11 14 12 14 16 23 23 25 22 24 26 30 32 24 32 31 30 28 34 27 22 23 24 27 28
26 30 34 31 27 29 30 28 27 25 21 21 20 20 19 18 16 17 15 15 18 23 17 22 26 31 33 29 30 30 28 22 23 28 31 32 27 27 26 26 25 28 27
22 22 25 31 32 35 36 34 30 30 28 26 26 26 25 20 17 15 15 17 18 20 21 22 23 24 25 26 26 26 27 27 28 26 27 27 28 32 25 26 28 29 28
20 21 20 20 20 20 22 24 27 26 25 26 27 25 22 20 20 22 23 23 24 25 26 27 27 25 25 25 24 25 24 24 28 27 26 26 25 25 27 26 26 28 30
16 18 21 21 20 20 22 24 26 28 26 26 27 26 24 22 20 22 23 23 23 22 22 22 23 25 26 28 28 26 27 30 29 28 27 23 26 27 27 27 27 30 30
12 13 14 17 24 27 24 24 25 27 27 29 29 28 27 29 27 23 23 22 24 25 24 23 23 22 22 24 28 28 29 33 30 28 25 25 25 27 28 27 26 26 27
7 9 11 13 15 20 26 31 32 31 34 37 39 39 37 36 31 32 31 26 26 27 27 26 24 24 24 24 23 22 23 22 25 25 26 27 29 29 27 25 25 26 25
8 10 12 13 14 16 20 22 27 31 34 35 36 38 39 34 32 32 35 36 32 32 32 29 28 28 28 28 26 23 23 25 24 25 26 26 26 27 26 25 25 24 24
10 11 14 14 14 16 17 19 20 20 23 28 32 34 36 35 34 34 31 32 32 33 34 33 31 30 28 28 26 24 22 22 25 26 25 25 26 27 26 25 25 25 27
14 14 15 15 16 16 18 19 18 17 18 19 21 24 28 30 28 28 31 32 31 32 31 30 31 30 29 29 29 28 26 28 26 25 26 26 27 27 27 27 27 28 28
13 15 16 17 19 19 20 21 20 20 21 21 22 23 23 25 31 33 31 32 32 30 30 30 30 30 30 29 27 28 27 28 29 29 30 31 31 31 30 29 28 27 27
15 16 18 19 20 22 24 24 24 24 24 24 25 27 29 30 28 29 32 35 34 32 31 32 33 32 30 29 29 28 29 31 30 30 31 32 33 33 31 29 28 27 28
15 16 18 20 21 23 25 26 27 27 27 27 27 28 30 32 34 34 35 33 34 34 34 32 33 33 33 32 30 30 30 31 32 32 33 33 33 32 30 28 27 27 28
15 16 18 19 20 21 23 24 26 27 28 29 29 29 31 32 32 33 33 34 36 37 37 36 34 35 34 33 31 30 30 31 31 31 31 31 31 30 28 27 27 26 26
14 15 16 17 18 19 20 21 23 23 24 26 27 27 28 30 31 32 33 34 34 35 36 36 35 32 32 31 29 29 29 29 30 31 30 30 29 27 26 25 25 23 22
14 14 14 14 15 16 17 18 19 20 21 22 22 24 25 27 28 29 29 31 32 33 34 35 35 33 30 29 29 28 28 29 30 30 30 29 26 25 24 23 22 20 17
13 14 13 14 14 14 14 15 15 16 17 18 19 19 20 22 22 23 24 26 28 30 32 33 32 31 29 28 27 27 27 28 29 28 26 25 25 24 22 20 19 16 15
13 13 13 13 13 13 13 13 13 14 15 15 15 15 16 16 15 14 16 20 22 21 22 24 25 25 24 24 25 26 26 26 26 25 25 23 22 20 19 17 16 15 15
Wind_Direction
227 216 227 230 229 238 243 245 246 247 242 240 244 255 254 248 238 229 233 234 232 230 232 232 235 236 240 242 245 244 248 251 254 255 257 260 263 266 268 268 269 272 273
201 215 205 211 220 236 249 252 248 252 243 245 236 243 245 249 236 241 241 232 228 228 230 232 234 236 239 242 245 247 250 253 256 257 258 261 263 264 265 267 270 272 275
203 207 229 229 235 245 247 248 239 234 236 233 227 240 251 242 236 236 224 224 223 227 229 232 234 236 238 242 245 248 251 253 256 259 260 261 263 266 271 273 276 278 278
204 218 224 219 236 242 244 232 229 231 232 236 241 240 246 242 235 243 244 222 220 225 228 232 233 235 239 242 244 247 249 253 256 260 263 266 268 267 269 273 281 280 275
208 217 216 237 234 245 238 226 209 219 227 225 221 228 238 239 234 240 239 215 219 221 226 230 234 236 237 238 239 244 248 252 256 261 265 266 265 264 265 274 277 286 281
209 217 209 224 233 231 216 211 215 211 212 210 222 225 234 241 236 240 246 230 216 223 227 229 231 236 241 245 245 247 252 251 254 260 268 265 264 261 265 272 277 281 276
229 235 232 230 232 226 218 207 213 209 217 198 215 226 223 227 240 241 236 239 231 225 227 239 235 237 243 247 251 265 249 257 255 260 263 272 274 262 274 268 271 269 276
220 200 238 224 220 217 220 218 226 217 226 219 231 198 206 211 216 212 213 215 229 229 239 238 233 246 244 239 231 239 240 247 262 270 278 280 272 264 267 276 268 256 278
234 223 217 200 217 240 238 231 221 214 221 215 219 209 226 211 207 230 241 260 232 254 249 238 238 246 246 252 248 248 256 257 267 259 283 276 284 278 271 284 268 268 276
211 218 224 239 231 236 225 219 204 223 216 217 211 212 217 219 224 241 244 244 239 258 253 254 258 248 253 261 267 267 270 258 259 254 272 268 266 261 273 259 271 274 270
212 216 218 223 229 222 228 220 227 234 214 217 224 233 227 220 224 228 230 237 245 248 253 255 252 254 255 255 259 262 264 258 258 272 274 260 264 267 267 270 270 263 273
210 215 219 221 219 218 219 220 227 226 228 226 222 223 228 229 229 230 233 239 248 252 255 257 262 260 259 258 260 265 261 257 257 264 263 268 260 267 269 266 267 269 276
195 207 218 225 229 226 222 222 221 219 218 225 227 225 229 234 244 248 246 247 249 250 255 256 258 259 258 257 254 254 249 257 262 266 263 262 263 264 269 271 267 272 274
201 204 209 222 231 235 236 235 230 226 223 223 227 234 241 245 247 260 256 254 255 258 261 260 260 263 264 259 256 256 253 255 260 252 260 269 268 268 263 264 272 273 276
226 232 229 233 239 243 245 244 244 246 244 243 244 246 248 243 242 254 260 260 261 263 265 270 273 275 273 269 262 258 255 255 253 256 260 264 261 263 267 271 271 275 279
244 242 233 230 236 244 247 249 250 250 253 253 252 250 246 238 239 247 244 258 260 261 259 261 268 271 272 270 268 261 256 256 260 256 250 259 258 259 262 266 269 270 277
262 253 246 240 239 241 239 239 240 241 245 248 248 249 248 246 242 241 249 253 256 260 264 264 263 264 266 268 268 260 255 255 257 251 248 253 256 255 260 265 269 274 279
264 257 257 255 251 247 242 242 243 242 238 237 241 243 246 241 238 241 242 245 250 254 258 261 262 260 259 263 264 263 255 253 255 253 254 255 255 253 257 260 263 270 276
280 275 268 260 257 258 255 248 244 245 246 251 254 254 249 246 245 246 249 250 251 253 256 258 257 259 263 265 265 261 258 257 254 252 252 253 253 250 252 256 261 269 274
287 284 283 282 279 274 268 261 258 258 256 254 253 254 259 261 257 254 251 250 252 252 253 255 257 258 260 261 261 258 252 251 254 258 258 256 252 248 250 255 262 267 272
285 286 286 285 282 278 276 275 273 269 266 264 263 261 259 259 260 261 258 257 252 248 247 248 251 254 257 260 260 260 257 255 253 255 255 252 249 247 250 255 262 269 275
287 288 288 284 280 277 276 272 271 270 269 268 268 270 268 265 262 259 256 259 259 258 255 251 247 250 252 254 254 254 253 253 252 252 252 248 244 245 249 257 266 272 275
285 284 283 281 280 277 274 271 269 269 268 269 270 269 269 269 268 266 263 258 253 256 259 259 257 255 257 257 253 252 251 250 248 246 243 240 240 244 251 260 266 268 270
289 289 289 286 280 276 274 272 272 272 272 271 272 273 272 270 268 266 263 259 258 251 247 250 253 253 253 252 252 252 248 244 239 234 232 235 239 247 254 257 258 259 262
287 288 290 288 287 285 284 282 278 273 270 270 273 278 280 278 274 267 261 258 253 249 244 242 241 241 241 246 246 243 238 233 229 228 231 236 240 245 249 250 249 253 257
290 291 290 289 289 291 291 287 283 278 272 268 268 272 277 280 278 274 265 257 255 251 243 240 238 236 234 229 230 232 227 226 227 230 234 237 238 238 238 240 244 250 255